PST,Max TemperatureF,Mean TemperatureF,Min TemperatureF,Max Dew PointF,MeanDew PointF,Min DewpointF,Max Humidity, Mean Humidity, Min Humidity, Max Sea Level PressureIn, Mean Sea Level PressureIn, Min Sea Level PressureIn, Max VisibilityMiles, Mean VisibilityMiles, Min VisibilityMiles, Max Wind SpeedMPH, Mean Wind SpeedMPH, Max Gust SpeedMPH,PrecipitationIn, CloudCover, Events, WindDirDegrees
2013-1-1,39,31,23,32,26,19,100,90,65,30.42,30.35,30.30,10,10,3,6,3,,0.00,3,,268
2013-1-2,39,29,19,32,25,18,100,91,65,30.36,30.28,30.21,10,8,0,6,3,,0.00,4,,274
2013-1-3,39,29,19,32,25,18,100,88,61,30.36,30.28,30.24,10,10,4,5,2,,0.00,6,,271
2013-1-4,42,34,26,36,28,25,100,93,66,30.38,30.31,30.24,10,8,0,5,2,,0.00,4,,279
2013-1-5,37,32,28,36,31,28,100,94,81,30.30,30.24,30.17,10,6,0,5,1,,0.25,7,,274
2013-1-6,37,34,32,34,32,32,100,91,81,30.28,30.21,30.15,10,9,2,5,1,,0.00,8,,281
2013-1-7,41,36,32,37,33,32,100,91,81,30.34,30.30,30.26,10,10,5,6,1,,0.00,8,,226
2013-1-8,42,37,32,36,33,32,100,97,76,30.26,30.25,30.23,10,7,0,5,1,,0.00,4,,279
2013-1-9,39,34,28,37,33,25,100,94,75,30.23,30.03,29.92,10,8,1,9,2,,0.02,6,,261
2013-1-10,41,32,24,27,24,18,93,78,39,30.13,30.07,30.00,10,10,7,12,4,23,0.00,5,,280
2013-1-11,39,32,24,25,22,16,93,72,45,30.22,30.16,30.12,10,10,8,8,3,,0.00,4,,282
2013-1-12,37,26,15,23,15,10,80,68,44,30.27,30.22,30.15,10,10,7,7,4,,0.00,1,,269
2013-1-13,37,24,12,23,14,7,80,68,48,30.36,30.28,30.22,10,10,3,8,4,,0.00,0,,274
2013-1-14,39,27,15,25,16,10,86,70,36,30.49,30.43,30.36,10,10,6,6,3,,0.00,0,,276
2013-1-15,44,32,19,32,24,18,100,83,53,30.60,30.54,30.46,10,9,4,5,2,,0.00,0,,270
2013-1-16,44,34,23,34,26,23,100,87,57,30.61,30.52,30.42,10,8,0,4,2,,0.00,2,,272
2013-1-17,46,34,23,36,26,19,93,84,49,30.47,30.37,30.27,10,9,3,5,2,,0.00,0,,272
2013-1-18,46,34,23,32,26,21,100,86,46,30.38,30.33,30.27,10,8,0,5,1,,0.00,2,,273
2013-1-19,44,34,23,32,25,19,100,86,43,30.42,30.35,30.29,10,8,0,5,2,,0.00,2,,272
2013-1-20,44,32,21,32,24,18,100,84,46,30.40,30.34,30.25,10,8,0,5,2,,0.00,2,,276
2013-1-21,46,34,23,34,26,19,100,87,50,30.33,30.28,30.20,10,8,0,5,2,,0.00,2,,275
2013-1-22,44,34,23,32,27,21,100,85,49,30.27,30.19,30.11,10,9,4,4,1,,0.00,1,,275
2013-1-23,39,34,28,37,33,27,100,96,87,30.21,30.13,30.07,10,5,0,6,1,,0.52,7,,276
2013-1-24,42,38,33,41,36,34,100,98,93,30.29,30.24,30.20,10,5,1,4,0,,0.05,8,,276
2013-1-25,41,38,35,39,37,34,100,99,93,30.29,30.19,30.07,10,6,0,4,0,,0.01,8,,307
2013-1-26,46,37,28,37,33,23,100,86,40,30.08,30.02,29.96,10,7,0,10,1,,0.00,4,,244
2013-1-27,44,34,24,30,27,23,100,79,46,30.19,30.14,30.08,10,10,7,9,3,,0.00,3,,238
2013-1-28,46,37,28,34,31,28,100,87,53,30.31,30.22,30.16,10,10,5,6,1,,0.00,3,,264
2013-1-29,57,42,28,36,31,28,100,81,44,30.47,30.38,30.30,10,10,3,10,3,,0.00,3,,269
2013-1-30,48,38,28,39,32,28,100,93,66,30.52,30.46,30.38,10,7,0,6,1,,0.00,4,,276
2013-1-31,50,38,26,37,30,27,100,89,50,30.44,30.36,30.27,10,7,0,5,2,,0.00,4,,280